Location: Decatur(IL)
(39.8400°N, 88.9550°W)
Time: 09:28:04
(UTC-05:00)

Cosmos 1953 - Visible Passes

Search period start: 01 April 2015 00:00
Search period end: 11 April 2015 00:00
Orbit: 545 x 566 km, 82.5° (Epoch: 01 April)

Date Brightness Start Highest point End Pass type
(mag) Time Alt. Az. Time Alt. Az. Time Alt. Az.
01 Apr 4.9 05:26:39 10° NNE 05:29:57 25° ENE 05:33:17 10° SE visible
02 Apr 4.6 05:24:02 10° NNE 05:27:30 28° ENE 05:31:01 10° SE visible
03 Apr 4.3 05:21:26 10° NNE 05:25:04 33° ENE 05:28:42 10° SE visible
04 Apr 3.9 05:18:52 10° N 05:22:36 38° ENE 05:26:21 10° SSE visible
05 Apr 3.6 05:16:18 10° N 05:20:08 44° ENE 05:23:58 10° SSE visible
06 Apr 3.2 05:13:44 10° N 05:17:38 51° E 05:21:32 10° SSE visible
07 Apr 2.9 05:11:10 10° N 05:15:08 60° E 05:19:06 10° SSE visible
08 Apr 2.6 05:08:37 10° N 05:12:37 71° E 05:16:37 10° SSE visible
09 Apr 2.3 05:06:05 10° N 05:10:06 82° E 05:14:07 10° S visible
10 Apr 2.2 05:03:33 10° N 05:07:34 85° W 05:11:35 10° S visible
